Weather in Chirakchi

Uzbekistan     39°01′54″N   66°34′20″E
temp.,
°C
wind,
m/s
gust,
m/s
humid.,
%
clouds,
%
prec.,
mm/h
press.,
hPa
HPBL,
m
6 may, thu
thu623:00+20s234896 0.0 101256
02:00+19s5852100 0.0 1011146
05:00+19s2348100 0.0 101366
08:00+20e125198 0.1 1014232
11:00+23nnw223968 0.1 10141269
14:00+25wnw543791 0.0 10141878
17:00+22ese455199 0.0 1014422
20:00+18ese126718 0.0 101523
7 may, fri
fri723:00+17se116897 0.0 101611
02:00+17ene227113 0.0 101514
05:00+16ene12750 0.0 101511
08:00+20e22565 0.0 1015239
11:00+25ssw343829 0.0 10151524
14:00+28w343122 0.0 10132465
17:00+29w1328100 0.0 10122552
20:00+23ne2247100 0.0 101315
8 may, sat
sat823:00+21ne225198 0.0 101418
02:00+20ene225792 0.0 101319
05:00+19ene2257100 0.0 101320
08:00+23ene224691 0.0 1014179
11:00+29nw113129 0.0 10141733
14:00+31nw32250 0.0 10122634
17:00+31nw33240 0.0 10112577
20:00+25nnw33333 0.0 101117
9 may, sun
sun923:00+23e22415 0.0 101113
02:00+21e22448 0.0 101014
05:00+20e22469 0.0 101019
08:00+25ne223948 0.0 1012201
11:00+30nnw222845 0.0 10111401
14:00+33nw322070 0.0 10082972
17:00+32nw642349 0.0 10082199
20:00+25nne494048 0.0 1008145
10 may, mon
mon1023:00+23ne4745100 0.0 1008121
02:00+21ne464699 0.0 100888
05:00+20ene3449100 0.0 100855
08:00+25ne454273 0.0 1008246
11:00+30n212874 0.0 10071207
14:00+33wnw332076 0.0 10062848
17:00+32n542454 0.0 10051760
20:00+24nne583795 0.0 1008208